BFL5570 CYPY-CYOP

Flight info

Callsign BFL5570
Flight time N/A
Altitude 6500
Route YOJ
Aircraft C310/L-SDFGR/S

Departure

Time 2026-04-23 20:50
Airport Fort Chipewyan Airport (CYPY)

Arrival

Time N/A
Airport Rainbow Lake Airport (CYOP)
Time Latitude Longitude Altitude Speed Heading
2026-04-23 20:36 58.76659 -111.11355 740 ft 0 kts 237°
2026-04-23 20:37 58.76660 -111.11354 740 ft 0 kts 237°
2026-04-23 20:42 58.76660 -111.11353 740 ft 0 kts 237°
2026-04-23 20:43 58.76659 -111.11357 740 ft 2 kts 249°
2026-04-23 20:44 58.76673 -111.11374 740 ft 2 kts 15°
2026-04-23 20:44 58.76676 -111.11373 740 ft 2 kts 15°
2026-04-23 20:44 58.76707 -111.11356 741 ft 6 kts 13°
2026-04-23 20:44 58.76719 -111.11353 742 ft 0 kts 352°
2026-04-23 20:47 58.76772 -111.11358 743 ft 12 kts
2026-04-23 20:47 58.76780 -111.11364 743 ft 1 kts 303°
2026-04-23 20:48 58.76794 -111.11420 742 ft 6 kts 302°
2026-04-23 20:48 58.76817 -111.11550 742 ft 14 kts 252°
2026-04-23 20:48 58.76737 -111.11747 738 ft 27 kts 228°
2026-04-23 20:48 58.76639 -111.11968 732 ft 18 kts 236°
2026-04-23 20:49 58.76553 -111.12140 726 ft 18 kts 218°
2026-04-23 20:49 58.76488 -111.12332 721 ft 18 kts 229°
2026-04-23 20:49 58.76392 -111.12536 717 ft 21 kts 234°
2026-04-23 20:49 58.76341 -111.12696 714 ft 16 kts 316°
2026-04-23 20:50 58.76377 -111.12652 715 ft 24 kts 47°
2026-04-23 20:50 58.76616 -111.12072 734 ft 80 kts 52°
2026-04-23 20:50 58.77009 -111.11203 1024 ft 90 kts 48°
2026-04-23 20:50 58.77427 -111.10254 1471 ft 90 kts 33°
2026-04-23 20:51 58.77996 -111.10426 1981 ft 100 kts 335°
2026-04-23 20:51 58.78658 -111.11114 2231 ft 113 kts 347°
2026-04-23 20:51 58.79460 -111.11068 2464 ft 124 kts
2026-04-23 20:51 58.80235 -111.12033 2663 ft 153 kts 309°
2026-04-23 20:52 58.80259 -111.14983 2907 ft 180 kts 257°
2026-04-23 20:52 58.79993 -111.16519 3031 ft 184 kts 254°
2026-04-23 20:52 58.79542 -111.18862 3221 ft 189 kts 252°
2026-04-23 20:52 58.79072 -111.21250 3405 ft 191 kts 251°
2026-04-23 20:53 58.78600 -111.23650 3591 ft 192 kts 251°
2026-04-23 20:53 58.78124 -111.26068 3777 ft 193 kts 251°
2026-04-23 20:53 58.77648 -111.28483 3953 ft 193 kts 252°
2026-04-23 20:53 58.77163 -111.30887 4124 ft 192 kts 252°
2026-04-23 20:54 58.76678 -111.33269 4310 ft 191 kts 252°
2026-04-23 20:54 58.76249 -111.35664 4495 ft 187 kts 263°
2026-04-23 20:54 58.76016 -111.38120 4688 ft 186 kts 266°
2026-04-23 20:54 58.75878 -111.40568 4884 ft 182 kts 276°
2026-04-23 20:55 58.75881 -111.42986 5071 ft 179 kts 279°
2026-04-23 20:55 58.75917 -111.45367 5260 ft 177 kts 280°
2026-04-23 20:55 58.75963 -111.47695 5440 ft 176 kts 280°
2026-04-23 20:55 58.76009 -111.50041 5631 ft 175 kts 280°
2026-04-23 20:56 58.76052 -111.52372 5825 ft 174 kts 281°
2026-04-23 20:56 58.76091 -111.54694 6016 ft 173 kts 281°
2026-04-23 20:56 58.76125 -111.57015 6228 ft 173 kts 281°
2026-04-23 20:56 58.76156 -111.59334 6420 ft 173 kts 281°
2026-04-23 20:57 58.76183 -111.61647 6610 ft 173 kts 281°
2026-04-23 20:57 58.76208 -111.63981 6723 ft 177 kts 281°
2026-04-23 20:57 58.76238 -111.66384 6772 ft 182 kts 281°
2026-04-23 20:57 58.76274 -111.68857 6804 ft 187 kts 281°
2026-04-23 20:58 58.76315 -111.71389 6813 ft 191 kts 281°
2026-04-23 20:58 58.76361 -111.73968 6819 ft 194 kts 281°
2026-04-23 20:58 58.76411 -111.76582 6822 ft 197 kts 281°
2026-04-23 20:58 58.76419 -111.79242 6822 ft 203 kts 272°
2026-04-23 20:59 58.76211 -111.81956 6825 ft 206 kts 267°
2026-04-23 20:59 58.75944 -111.84677 6823 ft 207 kts 265°
2026-04-23 20:59 58.75658 -111.87398 6820 ft 208 kts 265°
2026-04-23 20:59 58.75385 -111.90130 6819 ft 207 kts 269°
2026-04-23 21:00 58.75290 -111.92858 6817 ft 203 kts 277°
2026-04-23 21:00 58.75287 -111.95566 6817 ft 201 kts 278°
2026-04-23 21:00 58.75306 -111.98259 6829 ft 201 kts 279°
2026-04-23 21:00 58.75333 -112.00943 6834 ft 201 kts 279°
2026-04-23 21:01 58.75359 -112.03629 6839 ft 202 kts 277°
2026-04-23 21:01 58.75261 -112.06350 6840 ft 204 kts 272°
2026-04-23 21:01 58.75105 -112.09076 6840 ft 205 kts 271°
2026-04-23 21:01 58.74930 -112.11804 6838 ft 205 kts 270°
2026-04-23 21:02 58.74749 -112.14532 6839 ft 205 kts 270°
2026-04-23 21:02 58.74565 -112.17258 6839 ft 206 kts 270°
2026-04-23 21:02 58.74379 -112.19992 6844 ft 206 kts 270°
2026-04-23 21:02 58.74274 -112.22722 6844 ft 203 kts 276°
2026-04-23 21:03 58.74251 -112.25428 6844 ft 202 kts 278°
2026-04-23 21:03 58.74251 -112.28130 6844 ft 201 kts 278°
2026-04-23 21:03 58.74261 -112.30818 6843 ft 201 kts 279°
2026-04-23 21:03 58.74275 -112.33510 6843 ft 201 kts 279°
2026-04-23 21:04 58.74291 -112.36165 6841 ft 201 kts 279°
2026-04-23 21:04 58.74308 -112.38888 6842 ft 201 kts 279°
2026-04-23 21:04 58.74324 -112.41547 6843 ft 201 kts 279°
2026-04-23 21:04 58.74341 -112.44233 6844 ft 201 kts 279°
2026-04-23 21:05 58.74358 -112.46929 6846 ft 201 kts 279°
2026-04-23 21:05 58.74374 -112.49618 6848 ft 201 kts 279°
2026-04-23 21:05 58.74391 -112.52302 6847 ft 201 kts 279°
2026-04-23 21:05 58.74409 -112.54984 6847 ft 200 kts 279°
2026-04-23 21:06 58.74426 -112.57665 6848 ft 200 kts 279°
2026-04-23 21:06 58.74445 -112.60353 6847 ft 200 kts 279°
2026-04-23 21:06 58.74461 -112.63021 6836 ft 199 kts 279°
2026-04-23 21:06 58.74475 -112.65683 6841 ft 199 kts 279°
2026-04-23 21:07 58.74489 -112.68351 6827 ft 199 kts 279°
2026-04-23 21:07 58.74508 -112.71017 6840 ft 199 kts 279°
2026-04-23 21:07 58.74529 -112.73687 6846 ft 200 kts 279°
2026-04-23 21:07 58.74551 -112.76356 6853 ft 200 kts 279°
2026-04-23 21:08 58.74574 -112.79043 6854 ft 201 kts 279°
2026-04-23 21:08 58.74597 -112.81733 6855 ft 201 kts 279°
2026-04-23 21:08 58.74620 -112.84416 6853 ft 199 kts 279°
2026-04-23 21:08 58.74639 -112.87049 6853 ft 195 kts 279°
2026-04-23 21:09 58.74655 -112.89643 6853 ft 193 kts 279°
2026-04-23 21:09 58.74670 -112.92218 6854 ft 191 kts 279°
2026-04-23 21:09 58.74683 -112.94764 6852 ft 190 kts 279°
2026-04-23 21:09 58.74696 -112.97302 6853 ft 189 kts 279°
2026-04-23 21:10 58.74707 -112.99828 6854 ft 189 kts 279°
2026-04-23 21:10 58.74717 -113.02355 6856 ft 188 kts 279°
2026-04-23 21:10 58.74727 -113.04875 6856 ft 188 kts 279°
2026-04-23 21:10 58.74738 -113.07401 6856 ft 188 kts 279°
2026-04-23 21:11 58.74749 -113.09890 6858 ft 189 kts 279°
2026-04-23 21:11 58.74763 -113.12449 6860 ft 189 kts 279°
2026-04-23 21:11 58.74775 -113.14953 6859 ft 190 kts 279°
2026-04-23 21:11 58.74788 -113.17525 6854 ft 189 kts 279°
2026-04-23 21:12 58.74800 -113.20024 6856 ft 189 kts 279°
2026-04-23 21:12 58.74812 -113.22559 6855 ft 189 kts 279°
2026-04-23 21:12 58.74825 -113.25088 6853 ft 189 kts 279°
2026-04-23 21:12 58.74838 -113.27607 6857 ft 188 kts 279°
2026-04-23 21:13 58.74853 -113.30134 6837 ft 188 kts 279°
2026-04-23 21:13 58.74875 -113.32652 6854 ft 188 kts 279°
2026-04-23 21:13 58.74899 -113.35164 6852 ft 187 kts 279°
2026-04-23 21:13 58.74925 -113.37670 6853 ft 187 kts 279°
2026-04-23 21:14 58.74867 -113.40191 6851 ft 190 kts 271°
2026-04-23 21:14 58.74696 -113.42718 6857 ft 191 kts 269°
2026-04-23 21:14 58.74494 -113.45243 6856 ft 191 kts 268°
2026-04-23 21:14 58.74278 -113.47767 6857 ft 191 kts 268°
2026-04-23 21:15 58.74058 -113.50283 6856 ft 191 kts 268°
2026-04-23 21:15 58.73835 -113.52812 6856 ft 191 kts 268°
2026-04-23 21:15 58.73615 -113.55334 6858 ft 191 kts 268°
2026-04-23 21:15 58.73393 -113.57865 6857 ft 192 kts 268°
2026-04-23 21:16 58.73171 -113.60392 6856 ft 192 kts 268°
2026-04-23 21:16 58.72949 -113.62923 6854 ft 192 kts 268°
2026-04-23 21:16 58.72727 -113.65452 6857 ft 192 kts 268°
2026-04-23 21:16 58.72507 -113.67986 6859 ft 192 kts 268°
2026-04-23 21:17 58.72286 -113.70533 6854 ft 193 kts 268°
2026-04-23 21:17 58.72064 -113.73067 6853 ft 193 kts 268°
2026-04-23 21:17 58.71841 -113.75614 6855 ft 193 kts 268°
2026-04-23 21:17 58.71625 -113.78124 6855 ft 193 kts 268°
2026-04-23 21:18 58.71406 -113.80664 6855 ft 193 kts 268°
2026-04-23 21:18 58.71185 -113.83237 6858 ft 193 kts 268°
2026-04-23 21:18 58.70968 -113.85748 6857 ft 193 kts 268°
2026-04-23 21:18 58.70746 -113.88290 6862 ft 193 kts 268°
2026-04-23 21:19 58.70527 -113.90833 6856 ft 193 kts 268°
2026-04-23 21:19 58.70308 -113.93375 6856 ft 192 kts 268°
2026-04-23 21:19 58.70096 -113.95904 6852 ft 191 kts 268°
2026-04-23 21:19 58.69889 -113.98424 6856 ft 191 kts 268°
2026-04-23 21:20 58.69682 -114.00936 6856 ft 190 kts 268°
2026-04-23 21:20 58.69514 -114.03451 6860 ft 190 kts 271°
2026-04-23 21:20 58.69375 -114.05973 6852 ft 189 kts 271°
2026-04-23 21:20 58.69249 -114.08491 6848 ft 189 kts 272°
2026-04-23 21:21 58.69128 -114.10991 6848 ft 188 kts 272°
2026-04-23 21:21 58.69009 -114.13496 6849 ft 188 kts 272°